Location: The Saddle
(36.8333°N, 80.3417°W)
Time: 06:32:21
(UTC-04:00)

Courier 1B - Pass Details

Date: 30 January 2022
Orbit: 962 x 1209 km, 28.3° (Epoch: 22 May)

Event Time Altitude Azimuth Distance (km) Brightness Sun altitude
Rises 18:06:12 0° 243° (WSW) 3,938 13.1 -4.9°
Reaches altitude 10° 18:09:06 10° 236° (SW) 3,016 11.6 -5.4°
Maximum altitude 18:15:59 40° 170° (S) 1,658 8.8 -6.7°
Drops below altitude 10° 18:23:09 10° 103° (ESE) 3,133 9.6 -8.1°
Enters shadow 18:24:23 - 100° (E) 3,519 9.8 -8.4°
